Temperature
26 25 24 24 23 22 21 21 21 20 20 20 20 19 19 19 19 19 19 19 19 19 19 19 18 18 18 18 18 18 18 18 18 18 19 19 19 19 19 19 19 19 19
26 25 24 24 23 22 21 21 21 21 20 20 20 19 19 19 19 19 19 19 19 19 18 18 18 18 18 18 18 18 18 18 18 18 18 18 19 19 19 19 19 19 19
26 25 25 24 23 22 22 21 21 21 20 20 20 19 19 19 19 19 19 19 19 19 18 18 18 18 18 18 18 18 18 18 18 18 18 18 18 19 19 19 19 19 19
27 26 25 24 24 23 22 22 21 21 21 20 20 19 19 19 19 19 19 19 19 18 18 18 18 18 18 18 18 18 18 18 18 18 18 18 18 18 18 18 18 18 18
28 27 26 25 24 23 22 22 21 21 21 20 20 20 20 19 19 19 19 19 19 18 18 18 18 18 18 18 18 18 18 18 18 18 18 18 18 18 18 18 18 18 18
29 27 26 25 24 24 23 22 22 21 21 21 20 20 20 19 19 19 19 19 18 18 18 18 18 18 18 18 18 18 18 18 18 18 18 17 17 18 18 17 17 17 17
29 28 27 25 24 24 23 22 22 21 21 21 20 20 20 20 19 19 19 18 18 18 18 18 18 18 18 18 18 17 17 17 17 17 17 17 17 17 17 17 17 17 17
29 28 26 25 24 24 23 22 22 21 21 21 20 20 20 19 19 19 18 18 18 18 18 18 18 18 18 17 17 17 17 17 17 17 17 17 17 17 17 17 17 16 16
29 28 26 25 24 23 23 22 22 21 21 21 20 20 20 19 19 19 18 18 18 18 18 18 18 18 17 17 17 17 17 17 17 17 17 17 17 17 17 17 16 16 16
29 28 27 25 24 24 23 22 22 21 21 20 20 20 20 19 19 19 18 18 18 18 18 18 17 17 17 17 17 17 16 16 16 16 16 16 16 16 16 16 16 16 16
29 28 27 26 24 23 23 22 21 21 21 21 20 20 20 19 19 19 18 18 18 18 18 18 17 17 17 16 16 16 16 16 16 16 16 16 16 16 16 16 16 16 16
28 27 26 25 24 23 23 22 21 21 21 20 20 20 19 19 19 18 18 18 18 18 17 17 17 17 17 16 16 16 16 16 16 16 16 16 16 16 16 16 15 15 15
28 27 26 25 24 23 23 22 21 21 20 20 20 20 19 19 19 18 18 18 18 17 17 17 17 16 16 16 16 16 16 15 15 15 15 15 16 15 15 15 15 15 15
27 26 25 24 24 23 22 22 21 21 20 20 20 19 19 18 18 18 18 17 17 17 17 16 16 16 16 15 15 15 15 15 15 15 15 15 15 15 15 15 15 14 14
26 25 25 24 23 22 22 21 21 21 20 20 19 19 19 18 18 18 17 17 17 16 16 16 16 16 15 15 15 15 15 15 14 14 14 14 14 14 14 14 14 14 14
26 25 24 23 22 22 21 21 21 20 20 20 19 19 18 18 18 17 17 17 17 16 16 16 16 16 15 15 15 15 14 14 14 14 14 14 14 14 14 14 13 13 13
26 25 24 23 22 21 21 21 20 20 20 19 19 18 18 18 17 17 16 16 16 16 16 16 15 15 15 15 14 14 14 14 14 14 13 13 13 13 13 13 13 13 13
25 24 23 22 22 21 21 21 20 20 19 19 19 18 17 17 17 16 16 16 16 16 15 15 15 15 14 14 14 14 14 14 13 13 13 13 13 13 13 13 12 12 12
25 24 23 22 22 21 20 20 20 19 19 19 18 18 17 17 16 16 16 16 15 15 15 15 15 15 14 14 14 14 13 13 13 13 13 13 13 13 12 12 12 12 12
23 23 22 22 21 21 20 20 19 19 19 18 18 17 17 17 16 16 16 15 15 15 15 14 14 14 14 14 14 13 13 13 13 13 13 12 12 12 12 12 12 12 11
22 22 21 21 21 20 20 19 19 18 18 18 17 17 17 17 16 16 15 15 15 15 14 14 14 14 14 14 13 13 13 13 12 12 12 12 12 12 12 12 11 11 11
22 21 21 20 20 20 19 19 18 18 18 17 17 17 16 16 16 16 15 15 15 14 14 14 14 13 13 13 13 13 13 12 12 12 12 12 12 12 11 11 11 11 11
21 20 20 20 19 19 19 18 18 18 17 17 17 16 16 16 16 15 15 15 14 14 14 13 13 13 13 13 13 12 12 12 12 12 11 11 11 11 11 11 11 11 10
20 20 19 19 19 18 18 18 18 17 17 16 16 16 16 15 15 15 15 14 14 14 14 13 13 13 12 12 12 12 12 11 11 11 11 11 11 11 11 11 10 10 10
19 19 19 18 18 18 18 17 17 17 16 16 16 15 15 15 15 15 14 14 14 14 14 13 13 13 12 12 12 12 11 11 11 11 11 11 11 11 11 10 10 10 10
19 18 18 18 18 17 17 17 17 17 16 16 15 15 15 15 14 14 14 14 14 14 13 13 13 12 12 12 12 11 11 11 11 11 11 11 11 10 10 10 10 10 10
Wind_Speed
13 12 12 12 11 9 9 8 6 5 4 3 3 3 2 2 2 1 2 1 2 2 2 2 1 1 1 2 3 2 3 4 3 3 3 4 4 5 4 4 3 3 5
14 13 11 11 11 10 9 8 7 6 5 3 3 2 2 2 2 1 1 1 2 3 3 1 2 2 2 3 4 3 3 3 2 2 2 2 3 2 3 2 2 2 2
16 14 13 11 12 11 10 9 8 7 6 4 3 2 1 1 0 1 1 2 2 2 3 1 2 3 2 3 4 4 4 3 3 2 2 2 2 1 1 1 1 1 1
17 16 14 13 12 12 11 9 8 7 6 5 4 4 3 2 2 1 1 1 2 2 3 3 2 2 3 3 4 3 3 3 3 2 3 3 2 1 1 1 0 1 1
16 16 15 13 12 11 11 10 8 7 6 5 4 3 3 2 1 1 2 2 2 2 2 2 1 2 2 3 3 2 2 3 3 2 2 3 3 3 2 2 1 1 1
14 14 14 13 11 10 10 10 9 7 6 5 4 4 3 2 1 0 0 1 1 1 1 1 1 1 2 3 3 2 2 2 2 2 2 2 2 2 2 2 2 0 1
12 13 13 12 11 10 10 10 9 7 6 6 4 3 3 2 1 1 1 1 1 0 0 1 1 1 2 2 2 2 2 2 2 2 2 2 2 2 2 2 2 1 1
12 12 12 12 11 10 10 9 9 8 7 6 4 3 2 2 1 1 1 1 1 2 2 1 1 1 2 2 2 2 2 1 2 2 2 2 2 1 2 2 1 1 1
12 13 13 13 12 11 10 10 9 8 7 6 5 3 3 1 0 0 0 1 2 1 2 2 2 2 3 3 3 2 2 2 2 2 2 2 2 1 1 1 1 2 2
13 13 13 13 12 11 10 9 9 7 6 5 4 4 3 2 1 1 2 2 2 3 3 3 3 3 3 3 2 2 2 2 2 1 3 3 2 2 1 1 1 0 1
12 13 12 13 13 12 11 10 9 8 6 5 4 3 4 3 2 2 2 2 2 3 3 3 3 3 3 3 2 3 3 4 4 3 3 3 4 3 3 2 2 2 2
10 13 13 12 11 11 11 10 9 8 7 6 5 4 4 3 3 3 2 2 2 2 2 3 3 3 4 3 4 4 5 5 5 5 5 5 4 4 3 3 2 2 2
10 11 11 11 10 10 10 10 9 8 8 7 7 5 4 4 4 3 3 3 3 3 3 3 3 4 4 4 5 5 5 5 6 6 6 6 5 5 4 4 4 3 3
10 10 10 10 10 10 9 9 9 8 8 8 7 6 5 4 4 4 4 3 3 3 4 4 3 4 5 5 5 5 5 6 7 7 7 7 7 6 5 5 5 4 5
11 10 10 10 9 9 9 8 8 8 8 8 7 6 5 5 5 4 4 4 4 5 4 4 4 5 5 6 6 5 6 6 6 7 7 8 10 11 8 6 5 5 4
11 11 10 10 10 9 8 8 8 8 8 7 7 7 6 5 5 5 5 5 5 5 5 5 6 7 7 9 9 6 6 6 6 6 6 7 9 10 11 11 10 8 6
10 11 11 10 9 9 8 8 9 8 8 7 7 7 6 6 5 5 5 5 5 5 5 6 7 7 8 11 11 9 6 7 7 6 6 7 8 8 6 6 9 10 10
9 10 10 10 9 9 9 8 9 9 8 7 6 6 6 6 5 5 5 5 5 5 5 6 6 7 8 10 10 8 6 7 7 7 7 7 7 7 6 6 8 8 8
8 8 9 9 9 9 9 9 9 8 8 7 7 6 6 6 6 5 6 5 5 5 5 6 6 7 6 8 8 7 4 6 7 8 8 7 6 9 8 6 6 7 6
7 7 8 9 8 9 9 8 8 7 7 7 6 6 6 6 6 6 6 6 5 5 6 6 6 6 6 7 9 7 3 5 6 6 7 10 9 9 9 5 5 5 4
9 8 8 7 7 8 8 8 8 7 6 6 6 6 6 6 6 6 6 6 6 5 6 6 6 6 6 7 9 9 4 3 5 6 6 5 9 9 9 7 4 3 2
9 9 8 7 6 7 8 8 7 7 7 7 6 6 6 6 7 7 6 6 6 6 5 5 6 5 5 6 7 10 9 7 6 6 5 5 6 7 7 5 5 6 4
9 8 8 7 6 7 8 8 7 7 8 8 7 7 6 6 6 6 6 5 4 5 5 5 5 5 4 4 7 8 9 9 6 5 5 4 2 2 1 2 5 5 3
8 7 8 7 7 8 8 7 8 8 8 8 7 7 7 7 6 4 4 4 3 3 4 4 4 5 4 4 3 4 5 6 5 4 3 2 1 1 1 1 1 1 2
6 7 7 7 8 8 8 8 8 8 9 8 7 7 7 7 6 4 3 3 3 2 3 3 3 4 4 3 4 4 3 2 3 2 1 1 1 1 1 2 2 2 2
5 6 7 8 8 9 8 8 8 9 9 8 7 6 6 6 6 6 6 10 8 9 10 8 7 6 7 8 8 7 6 4 3 2 1 1 1 1 1 1 1 2 2
Wind_Direction
170 165 167 165 160 158 161 161 172 168 176 190 203 213 210 218 210 181 147 151 286 296 287 309 328 290 285 289 297 283 271 256 248 271 285 272 246 237 231 233 217 192 186
169 168 171 169 164 165 165 166 177 175 188 199 207 211 220 224 194 143 132 183 247 275 263 235 265 268 262 270 275 268 261 261 241 224 258 285 290 270 256 237 206 199 158
173 174 178 176 174 173 175 180 178 176 187 188 201 220 192 256 218 167 178 214 233 251 283 270 274 278 259 254 255 258 245 254 271 233 208 221 239 273 272 231 189 153 145
175 176 179 179 181 177 176 175 171 173 179 190 204 206 201 210 206 189 178 202 223 255 259 265 262 281 288 280 267 267 266 258 263 259 228 233 243 217 279 308 171 174 142
175 175 177 177 181 178 173 169 164 169 175 186 197 206 222 226 214 188 172 207 224 248 268 264 282 281 286 300 293 306 286 265 258 262 257 249 248 243 228 252 300 6 69
171 171 173 169 173 173 170 164 161 167 172 183 193 200 216 241 288 21 281 228 236 241 261 295 303 300 298 300 298 300 293 285 280 279 274 252 237 235 228 221 233 232 356
169 165 162 159 163 167 162 158 157 165 171 176 185 192 203 204 231 256 261 280 326 351 352 332 351 322 307 309 313 310 303 300 294 285 277 267 253 254 235 223 228 204 264
164 158 154 154 158 159 155 154 157 164 169 171 173 180 180 191 213 248 298 2 2 18 32 17 349 346 339 333 329 322 307 313 306 304 296 292 284 278 242 226 209 227 258
156 156 156 157 159 158 155 154 152 155 159 163 159 160 143 156 216 117 325 18 12 20 18 22 19 4 2 345 349 353 333 343 351 339 337 322 324 316 302 277 211 208 222
157 154 154 154 153 151 146 144 144 146 145 153 159 151 141 140 117 73 71 46 22 18 14 19 19 14 10 355 357 15 360 23 28 21 15 8 354 344 1 10 342 141 171
146 144 144 144 144 143 143 140 139 139 139 141 137 125 125 123 114 90 72 61 39 20 16 15 20 19 14 6 19 39 24 35 34 32 32 24 23 19 19 34 43 57 112
135 139 139 138 142 144 144 143 144 145 145 139 129 123 120 119 113 100 82 70 61 44 33 25 26 30 31 28 37 42 39 39 39 36 34 29 34 35 27 31 43 68 104
132 134 137 140 141 140 138 142 146 146 144 137 131 129 125 118 108 94 83 75 67 53 45 46 45 44 39 42 45 47 52 51 49 45 44 35 36 37 34 35 34 50 76
139 140 137 137 135 134 135 140 142 142 139 135 133 131 127 120 111 101 93 86 82 73 59 53 52 54 51 43 47 58 58 62 63 59 52 44 43 37 31 46 42 55 71
146 141 141 136 135 138 142 141 139 135 135 137 138 139 131 121 113 109 102 90 81 79 68 60 53 51 57 41 38 59 71 67 71 72 70 65 63 59 53 59 51 58 70
152 145 139 139 142 144 148 142 138 135 135 139 141 134 128 125 121 115 104 93 83 73 67 64 61 56 51 29 34 50 69 64 63 65 75 83 65 63 65 65 61 63 72
152 149 148 148 147 149 145 142 140 139 138 137 136 133 133 132 127 122 112 104 95 84 73 74 76 71 47 33 34 43 66 67 59 55 51 60 56 51 51 69 71 62 58
149 145 145 148 149 146 143 141 143 144 143 141 139 138 139 135 125 118 114 108 103 95 87 83 84 82 59 40 36 36 79 76 67 59 55 63 54 40 37 59 67 64 53
139 142 144 146 145 144 143 142 144 145 146 144 143 141 138 134 130 122 117 112 108 103 96 89 85 83 65 38 31 19 93 90 81 73 59 55 54 30 38 59 71 76 72
121 125 132 136 136 140 141 141 140 142 143 141 139 134 134 133 130 124 120 117 115 112 106 96 88 85 76 44 33 19 83 101 102 94 78 58 50 39 42 55 62 61 50
125 127 130 125 128 131 134 136 136 138 135 132 129 129 129 127 124 118 120 123 119 113 108 105 94 84 78 63 44 44 52 64 93 95 83 63 49 46 41 46 57 47 22
130 129 121 117 123 130 134 133 135 135 130 127 127 126 128 131 125 123 125 126 128 127 123 120 115 103 87 69 63 61 58 55 74 86 93 88 63 47 39 42 23 10 10
130 129 127 125 129 135 137 139 138 135 132 128 128 128 126 117 124 133 138 141 149 150 146 147 137 125 115 94 80 74 70 70 77 85 98 108 98 32 37 47 14 7 11
135 136 135 136 137 138 136 137 139 138 136 137 136 136 133 128 126 134 142 148 153 154 149 146 139 135 130 122 112 110 104 102 107 114 127 167 238 271 316 12 11 34 21
140 143 143 145 145 142 139 144 145 143 143 144 143 142 141 140 135 115 81 107 78 91 127 122 126 136 128 119 121 122 114 118 100 118 163 178 169 174 144 109 76 41 29
142 144 146 150 147 146 146 150 152 150 149 152 156 158 157 150 145 130 100 58 75 78 80 83 95 93 108 122 109 95 88 87 99 109 163 113 79 69 81 82 95 81 47
Height
1531 1534 1537 1539 1541 1542 1543 1544 1545 1546 1547 1548 1549 1549 1550 1551 1551 1552 1552 1552 1552 1552 1551 1551 1551 1551 1551 1551 1551 1550 1551 1551 1552 1552 1552 1552 1552 1552 1553 1554 1555 1554 1554
1528 1531 1534 1537 1539 1540 1541 1542 1543 1545 1546 1547 1547 1549 1549 1550 1550 1550 1550 1550 1550 1550 1550 1549 1549 1549 1549 1548 1548 1548 1548 1548 1550 1550 1550 1550 1551 1550 1550 1550 1551 1551 1552
1524 1528 1532 1535 1537 1538 1539 1541 1542 1543 1545 1546 1547 1548 1548 1549 1549 1550 1549 1549 1549 1548 1548 1548 1547 1547 1547 1546 1546 1546 1546 1546 1546 1547 1548 1548 1547 1547 1547 1547 1547 1547 1549
1520 1524 1528 1532 1534 1536 1537 1539 1540 1542 1543 1545 1546 1547 1547 1548 1548 1548 1548 1548 1547 1547 1547 1546 1546 1545 1545 1545 1544 1544 1543 1543 1543 1544 1545 1545 1545 1546 1545 1546 1545 1546 1547
1516 1521 1525 1528 1532 1534 1536 1537 1539 1540 1542 1543 1544 1545 1546 1547 1547 1547 1547 1547 1546 1546 1545 1545 1544 1543 1543 1543 1542 1542 1541 1541 1541 1541 1542 1542 1543 1543 1544 1543 1544 1545 1545
1513 1518 1522 1526 1530 1532 1534 1536 1537 1539 1540 1541 1543 1544 1545 1545 1546 1546 1546 1546 1546 1545 1544 1544 1543 1542 1541 1541 1540 1539 1539 1538 1538 1538 1538 1539 1539 1540 1540 1540 1541 1542 1543
1511 1516 1520 1524 1527 1530 1533 1534 1536 1537 1539 1540 1541 1542 1543 1544 1544 1545 1545 1545 1545 1544 1543 1543 1542 1541 1540 1539 1538 1538 1537 1537 1536 1536 1536 1536 1537 1537 1538 1538 1539 1540 1541
1509 1514 1518 1522 1525 1528 1531 1533 1535 1536 1538 1539 1540 1541 1542 1543 1543 1543 1544 1544 1544 1543 1543 1542 1541 1540 1539 1538 1537 1536 1535 1535 1535 1534 1534 1534 1534 1535 1536 1537 1538 1538 1539
1507 1512 1517 1520 1524 1527 1530 1532 1534 1535 1537 1538 1540 1540 1541 1542 1542 1542 1543 1543 1542 1542 1542 1541 1540 1539 1538 1537 1536 1535 1534 1534 1533 1533 1533 1533 1533 1533 1534 1535 1536 1537 1536
1506 1511 1515 1519 1523 1526 1529 1531 1533 1535 1536 1538 1539 1540 1540 1541 1541 1541 1541 1541 1541 1541 1541 1540 1539 1538 1537 1536 1535 1534 1533 1533 1533 1532 1532 1531 1531 1531 1532 1533 1533 1534 1535
1505 1509 1514 1518 1522 1525 1528 1531 1532 1534 1536 1537 1538 1539 1540 1541 1541 1541 1541 1541 1540 1540 1539 1539 1538 1537 1536 1535 1534 1533 1533 1532 1532 1532 1531 1531 1531 1530 1530 1531 1531 1532 1533
1506 1509 1513 1517 1521 1524 1527 1530 1532 1533 1535 1536 1537 1539 1540 1540 1540 1540 1540 1540 1540 1539 1539 1538 1537 1536 1535 1535 1534 1533 1533 1532 1532 1531 1531 1531 1530 1530 1530 1530 1531 1531 1532
1506 1510 1514 1517 1521 1524 1527 1529 1531 1533 1534 1536 1537 1538 1539 1539 1540 1540 1540 1540 1539 1539 1538 1538 1537 1536 1535 1535 1534 1533 1533 1532 1532 1531 1531 1531 1530 1530 1530 1530 1530 1531 1532
1507 1510 1514 1517 1521 1524 1526 1529 1531 1533 1534 1535 1536 1537 1538 1539 1539 1539 1539 1539 1539 1538 1538 1537 1537 1536 1536 1535 1535 1534 1533 1533 1533 1532 1532 1531 1531 1531 1530 1530 1530 1531 1532
1507 1510 1514 1517 1520 1523 1526 1528 1530 1532 1533 1534 1536 1537 1537 1538 1538 1539 1539 1539 1539 1539 1538 1538 1537 1537 1536 1536 1536 1535 1535 1534 1534 1534 1533 1533 1532 1532 1532 1531 1531 1531 1532
1506 1510 1513 1516 1520 1522 1525 1527 1529 1531 1532 1534 1535 1536 1537 1537 1538 1538 1539 1539 1539 1539 1539 1538 1538 1537 1537 1537 1537 1536 1536 1536 1535 1535 1535 1534 1534 1533 1533 1533 1533 1533 1533
1505 1509 1512 1515 1518 1521 1523 1526 1528 1530 1531 1533 1534 1535 1536 1537 1538 1539 1539 1539 1539 1539 1539 1539 1539 1538 1538 1538 1538 1537 1537 1537 1537 1536 1536 1536 1535 1535 1535 1534 1534 1535 1535
1505 1508 1511 1514 1517 1520 1523 1525 1527 1528 1530 1532 1533 1535 1535 1536 1537 1538 1538 1539 1539 1539 1539 1539 1539 1539 1539 1539 1539 1539 1539 1538 1538 1538 1537 1537 1537 1537 1536 1536 1536 1537 1537
1504 1508 1511 1514 1516 1518 1521 1523 1526 1527 1529 1531 1532 1533 1535 1536 1536 1537 1538 1538 1539 1539 1540 1540 1540 1540 1540 1540 1540 1540 1540 1540 1539 1539 1539 1539 1538 1538 1538 1538 1538 1538 1539
1503 1507 1510 1512 1515 1517 1520 1522 1524 1526 1528 1529 1531 1532 1534 1535 1535 1536 1537 1538 1538 1539 1540 1540 1541 1541 1541 1541 1541 1541 1541 1541 1541 1540 1540 1540 1540 1540 1540 1540 1540 1540 1540
1503 1506 1508 1511 1514 1516 1518 1520 1523 1524 1526 1528 1530 1531 1533 1534 1535 1536 1537 1538 1539 1539 1540 1540 1541 1541 1541 1541 1542 1542 1542 1542 1542 1541 1541 1542 1542 1542 1542 1542 1542 1542 1542
1502 1504 1507 1510 1512 1515 1517 1518 1521 1523 1525 1527 1529 1530 1532 1533 1534 1535 1536 1538 1538 1539 1540 1540 1541 1541 1542 1542 1542 1542 1542 1542 1542 1542 1543 1543 1543 1543 1543 1543 1543 1543 1544
1501 1503 1506 1508 1511 1513 1515 1517 1519 1522 1523 1525 1527 1529 1531 1532 1533 1535 1536 1537 1538 1539 1539 1540 1541 1541 1542 1542 1543 1543 1543 1543 1543 1544 1544 1544 1544 1544 1545 1545 1545 1545 1545
1500 1503 1505 1507 1510 1512 1514 1516 1518 1520 1522 1523 1525 1527 1529 1531 1532 1534 1535 1537 1538 1539 1539 1540 1540 1541 1542 1542 1542 1543 1543 1544 1544 1544 1545 1545 1545 1546 1546 1546 1546 1546 1546
1500 1502 1504 1506 1508 1510 1512 1515 1516 1518 1520 1522 1524 1526 1528 1530 1531 1533 1534 1536 1537 1538 1539 1539 1540 1540 1541 1542 1543 1543 1543 1544 1545 1545 1545 1546 1546 1547 1547 1547 1547 1547 1547
1499 1501 1503 1505 1507 1509 1511 1513 1515 1516 1518 1520 1522 1524 1527 1529 1530 1531 1533 1534 1536 1537 1538 1539 1540 1540 1541 1542 1543 1543 1544 1545 1545 1546 1546 1547 1547 1547 1548 1548 1547 1547 1547